Terug naar catalogus

METEOR 2-17 DEB

ActiefPO
NORAD 28989·DEBRIS·🇷🇺 Russia

Gelanceerd Jan 30, 1988 vanaf Plesetsk Cosmodrome

Loading…

Volgende Passages (komende 24 uur)

TLE

VerouderdSource: Space-Track

Epoch: Sep 1, 2026, 00:43 UTC

1 28989U 88005D   26244.03027659  .00002379  00000-0  12160-2 0  9990
2 28989  82.5280 148.2948 0027959 187.9613 172.1125 14.15040622671554

Volg METEOR 2-17 DEB in realtime met AllMySat

Download on the App Store